Location: Bletchingley
(51.2333°N, 0.1000°W)
Time: 15:28:53
(UTC+00:00)

Cosmos 2266 Rocket - Pass Details

Date: 25 January 2021
Orbit: 934 x 1008 km, 82.9° (Epoch: 05 March)

Event Time Altitude Azimuth Distance (km) Brightness Sun altitude
Rises 17:57:00 0° 129° (SE) 3,679 6.7 -12.1°
Enters shadow 17:59:30 - 116° (ESE) 2,991 6.1 -12.5°
Exits shadow 18:10:31 - 24° (NNE) 3,566 6.6 -14.2°
Sets 18:10:42 0° 23° (NNE) 3,624 6.6 -14.2°
